Location: Peterborough
(44.3091°N, 78.3197°W)
Time: 01:14:56
(UTC-04:00)

Vanguard 1 Rocket - Pass Details

Date: 30 March 2023
Orbit: 655 x 4220 km, 34.3° (Epoch: 02 June)

Event Time Altitude Azimuth Distance (km) Brightness Sun altitude
Rises 03:37:48 0° 276° (W) 7,589 11.8 -32.7°
Enters shadow 03:40:30 - 274° (W) 6,934 11.6 -32.3°
Exits shadow 04:02:43 28° 170° (S) 2,732 9.5 -29.5°
Drops below altitude 10° 04:06:35 10° 147° (SSE) 3,387 10.2 -28.9°
Sets 04:09:03 0° 138° (SE) 4,040 10.8 -28.6°
